Location: Asheville, NC
(35.6000°N, 82.5500°W)
Time: 14:16:41
(UTC-05:00)

RS-15 - Pass Details

Date: 07 January 2018
Orbit: 1886 x 2158 km, 64.8° (Epoch: 18 January)

Event Time Altitude Azimuth Distance (km) Brightness Sun altitude
Rises 20:47:07 0° 328° (NNW) 5,548 10.8 -38.7°
Reaches altitude 10° 20:50:34 10° 326° (NW) 4,510 10.2 -39.5°
Maximum altitude 21:02:01 69° 247° (WSW) 2,080 8.1 -41.8°
Enters shadow 21:04:41 55° 192° (SSW) 2,264 8.2 -42.3°
